Location: General Nathan Twining Observatory
(34.5931°N, 106.8201°W)
Time: 20:39:19
(UTC-07:00)

Nadezhda 3 Rocket - Pass Details

Date: 20 September 2017
Orbit: 957 x 1000 km, 82.9° (Epoch: 12 December)

Event Time Altitude Azimuth Distance (km) Brightness Sun altitude
Rises 21:42:01 0° 349° (N) 3,712 7.5 -31.8°
Reaches altitude 10° 21:44:35 10° 346° (NNW) 2,754 6.8 -32.3°
Maximum altitude 21:50:47 61° 268° (W) 1,104 4.3 -33.4°
Enters shadow 21:50:48 61° 267° (W) 1,104 4.3 -33.4°
